This is the latest recevied weather packets stored in our database for station/object N8SDR. If no packets are shown the sender has not sent any weather packets the latest 10 day(s).
| Time | Temp. | Humidity | Pressure | Rain* | Wind** | Luminosity | Snow |
|---|---|---|---|---|---|---|---|
| 1777677161 | 11.11° C | 64% | 1012.2 hPa | 0 mm | - | 76 W/m² | - |
| 1777676859 | 11.67° C | 64% | 1012 hPa | 0 mm | - | 49 W/m² | - |
| 1777676557 | 11.67° C | 63% | 1012.3 hPa | 0 mm | - | 170 W/m² | - |
| 1777676255 | 11.67° C | 65% | 1012.1 hPa | 0 mm | - | 199 W/m² | - |
| 1777675952 | 11.67° C | 65% | 1012 hPa | 0 mm | - | 83 W/m² | - |
| 1777675648 | 11.67° C | 64% | 1011.9 hPa | 0 mm | - | 82 W/m² | - |
| 1777675346 | 12.22° C | 61% | 1011.7 hPa | 0 mm | - | 220 W/m² | - |
| 1777675041 | 12.22° C | 61% | 1012 hPa | 0 mm | - | 261 W/m² | - |
| 1777674738 | 12.78° C | 62% | 1012.3 hPa | 0 mm | - | 134 W/m² | - |
| 1777674435 | 11.67° C | 57% | 1012 hPa | 0 mm | - | 146 W/m² | - |
| 1777674133 | 11.67° C | 56% | 1012.3 hPa | 0 mm | - | 141 W/m² | - |
| 1777673828 | 12.22° C | 56% | 1011.9 hPa | 0 mm | - | 152 W/m² | - |
| 1777673525 | 12.78° C | 57% | 1012.1 hPa | 0 mm | - | 152 W/m² | - |
| 1777673223 | 12.22° C | 56% | 1012 hPa | 0 mm | - | 157 W/m² | - |
| 1777672920 | 12.78° C | 58% | 1011.7 hPa | 0 mm | - | 293 W/m² | - |
| 1777672617 | 11.67° C | 59% | 1012 hPa | 0 mm | - | 141 W/m² | - |
| 1777672312 | 11.67° C | 60% | 1011.9 hPa | 0 mm | - | 131 W/m² | - |
| 1777672007 | 11.67° C | 59% | 1012 hPa | 0 mm | - | 114 W/m² | - |
| 1777671703 | 12.22° C | 58% | 1011.9 hPa | 0 mm | - | 134 W/m² | - |
| 1777671400 | 12.22° C | 59% | 1012.1 hPa | 0 mm | - | 442 W/m² | - |
| 1777671096 | 12.22° C | 60% | 1011.9 hPa | 0 mm | - | 498 W/m² | - |
| 1777670793 | 12.78° C | 60% | 1012.1 hPa | 0 mm | - | 195 W/m² | - |
| 1777670489 | 12.78° C | 60% | 1012.2 hPa | 0 mm | - | 383 W/m² | - |
| 1777670186 | 12.22° C | 62% | 1012.2 hPa | 0 mm | - | 574 W/m² | - |
| 1777669884 | 11.67° C | 62% | 1011.9 hPa | 0 mm | - | 289 W/m² | - |
* Rain latest hour (hover to see other rain measurements)
** Current wind speed in m/s (hover to see current wind gust speed)